2016-02-03 00:01:46 r, 19.93m,0000000001Hz,0000508957c,0000001.105s, 000.3C,00002191
2016-02-03 00:11:46 r, 19.97m,0000000001Hz,0000530606c,0000001.151s, 000.3C,00002191
2016-02-03 00:21:48 r, 20.00m,0000000001Hz,0000546384c,0000001.186s, 000.3C,00002191
2016-02-03 00:31:46 r, 19.98m,0000000000Hz,0000533890c,0000001.159s, 000.3C,00002191
2016-02-03 00:41:46 r, 19.95m,0000000001Hz,0000518231c,0000001.125s, 000.3C,00002191
2016-02-03 00:51:46 r, 19.87m,0000000001Hz,0000482910c,0000001.048s, 000.3C,00002191
2016-02-03 01:01:46 r, 19.81m,0000000001Hz,0000457080c,0000000.992s, 000.1C,00002191
2016-02-03 01:11:46 r, 19.73m,0000000001Hz,0000422445c,0000000.917s, 000.1C,00002191
2016-02-03 01:21:46 r, 19.45m,0000000001Hz,0000329355c,0000000.715s, 000.1C,00002191
2016-02-03 01:31:46 r, 19.29m,0000000002Hz,0000283313c,0000000.615s, 000.1C,00002191
2016-02-03 01:41:46 r, 19.21m,0000000002Hz,0000263023c,0000000.571s, 000.1C,00002191
2016-02-03 01:51:46 r, 19.17m,0000000001Hz,0000252426c,0000000.548s, 000.1C,00002191
2016-02-03 02:01:46 r, 19.16m,0000000002Hz,0000250498c,0000000.544s, 000.1C,00002191
2016-02-03 02:11:46 r, 19.17m,0000000002Hz,0000252249c,0000000.547s,-000.4C,00002191
2016-02-03 02:21:46 r, 19.21m,0000000002Hz,0000263229c,0000000.571s,-000.4C,00002191
2016-02-03 02:31:46 r, 19.23m,0000000001Hz,0000268974c,0000000.584s,-000.4C,00002191
2016-02-03 02:41:46 r, 19.22m,0000000002Hz,0000265843c,0000000.577s,-000.4C,00002191
2016-02-03 02:51:46 r, 19.25m,0000000001Hz,0000272435c,0000000.591s,-000.7C,00002191
2016-02-03 03:01:46 r, 19.32m,0000000002Hz,0000291864c,0000000.633s,-000.7C,00002191
2016-02-03 03:11:46 r, 19.42m,0000000001Hz,0000320631c,0000000.696s,-001.0C,00002191
2016-02-03 03:21:46 r, 19.56m,0000000001Hz,0000363802c,0000000.790s,-001.3C,00002191
2016-02-03 03:31:46 r, 19.29m,0000000001Hz,0000283045c,0000000.614s,-001.3C,00002191
2016-02-03 03:41:46 r, 19.31m,0000000001Hz,0000288869c,0000000.627s,-001.7C,00002191
2016-02-03 03:51:48 r, 19.22m,0000000002Hz,0000265028c,0000000.575s,-001.7C,00002191
2016-02-03 04:01:46 r, 19.24m,0000000002Hz,0000271695c,0000000.590s,-001.3C,00002191
2016-02-03 04:11:46 r, 19.33m,0000000002Hz,0000293512c,0000000.637s,-001.7C,00002191
2016-02-03 04:21:47 r, 19.40m,0000000001Hz,0000314719c,0000000.683s,-001.7C,00002191
2016-02-03 04:31:46 r, 19.35m,0000000002Hz,0000300507c,0000000.652s,-001.7C,00002191
2016-02-03 04:41:46 r, 19.59m,0000000001Hz,0000372504c,0000000.808s,-001.7C,00002191
2016-02-03 04:51:46 r, 19.70m,0000000001Hz,0000410927c,0000000.892s,-001.7C,00002191
2016-02-03 05:01:46 r, 19.09m,0000000002Hz,0000235402c,0000000.511s,-002.0C,00002191
2016-02-03 05:11:46 r, 18.58m,0000000003Hz,0000147884c,0000000.321s,-001.7C,00002191
2016-02-03 05:21:46 r, 18.40m,0000000003Hz,0000125484c,0000000.272s,-001.3C,00002191
2016-02-03 05:31:46 r, 18.31m,0000000004Hz,0000116181c,0000000.252s,-001.0C,00002191
2016-02-03 05:41:46 r, 18.02m,0000000005Hz,0000088379c,0000000.192s,-000.4C,00002191
2016-02-03 05:51:46 r, 18.24m,0000000004Hz,0000108381c,0000000.235s,-000.4C,00002191
2016-02-03 06:01:46 r, 18.18m,0000000005Hz,0000102958c,0000000.223s, 000.1C,00002191
2016-02-03 06:11:46 r, 18.20m,0000000004Hz,0000104675c,0000000.227s, 000.3C,00002191
2016-02-03 06:21:46 r, 18.13m,0000000005Hz,0000097892c,0000000.212s, 000.6C,00002191
2016-02-03 06:31:46 r, 18.06m,0000000005Hz,0000091242c,0000000.198s, 000.9C,00002191
2016-02-03 06:41:46 r, 18.10m,0000000004Hz,0000095620c,0000000.208s, 000.9C,00002191
2016-02-03 06:51:46 r, 17.80m,0000000006Hz,0000072692c,0000000.158s, 001.2C,00002191
2016-02-03 07:01:46 r, 16.66m,0000000018Hz,0000025292c,0000000.055s, 001.2C,00002191
2016-02-03 07:11:46 r, 15.17m,0000000071Hz,0000006418c,0000000.014s, 001.2C,00002191
2016-02-03 07:21:46 r, 13.27m,0000000416Hz,0000000000c,0000000.000s, 001.2C,00002191
2016-02-03 07:31:46 r, 11.22m,0000002753Hz,0000000000c,0000000.000s, 001.2C,00002191
2016-02-03 07:41:46 r, 09.37m,0000015104Hz,0000000000c,0000000.000s, 001.2C,00002191
2016-02-03 07:51:47 r, 08.01m,0000052998Hz,0000000000c,0000000.000s, 001.2C,00002191
2016-02-03 08:01:46 r, 06.97m,0000137730Hz,0000000000c,0000000.000s, 001.6C,00002191
2016-02-03 08:11:46 r, 06.31m,0000253816Hz,0000000000c,0000000.000s, 001.9C,00002191
2016-02-03 08:21:47 r, 00.00m,0000430682Hz,0000000000c,0000000.000s, 001.9C,00002191
2016-02-03 08:31:46 r, 00.00m,0000597682Hz,0000000000c,0000000.000s, 002.2C,00002191
2016-02-03 08:41:46 r, 00.00m,0000597687Hz,0000000000c,0000000.000s, 002.5C,00002191
2016-02-03 08:51:47 r, 00.00m,0000597527Hz,0000000000c,0000000.000s, 002.9C,00002191
2016-02-03 09:01:46 r, 00.00m,0000597507Hz,0000000000c,0000000.000s, 003.2C,00002191
2016-02-03 09:11:46 r, 00.00m,0000597491Hz,0000000000c,0000000.000s, 003.5C,00002191
2016-02-03 09:21:46 r, 00.00m,0000597486Hz,0000000000c,0000000.000s, 003.8C,00002191
2016-02-03 09:31:46 r, 00.00m,0000597408Hz,0000000000c,0000000.000s, 004.5C,00002191
2016-02-03 09:41:46 r, 00.00m,0000597303Hz,0000000000c,0000000.000s, 004.8C,00002191
2016-02-03 09:51:46 r, 00.00m,0000597198Hz,0000000000c,0000000.000s, 005.4C,00002191
2016-02-03 10:01:47 r, 00.00m,0000597227Hz,0000000000c,0000000.000s, 006.1C,00002191
2016-02-03 10:11:46 r, 00.00m,0000597197Hz,0000000000c,0000000.000s, 006.7C,00002191
2016-02-03 10:21:46 r, 00.00m,0000597225Hz,0000000000c,0000000.000s, 007.0C,00002191
2016-02-03 10:31:47 r, 00.00m,0000597076Hz,0000000000c,0000000.000s, 009.0C,00002191
2016-02-03 10:41:46 r, 00.00m,0000596904Hz,0000000000c,0000000.000s, 009.9C,00002191
2016-02-03 10:51:46 r, 00.00m,0000596845Hz,0000000000c,0000000.000s, 011.6C,00002191
2016-02-03 11:01:47 r, 00.00m,0000596818Hz,0000000000c,0000000.000s, 012.5C,00002191
2016-02-03 11:11:46 r, 00.00m,0000596631Hz,0000000000c,0000000.000s, 013.8C,00002191
2016-02-03 11:21:46 r, 00.00m,0000596635Hz,0000000000c,0000000.000s, 013.2C,00002191
2016-02-03 11:31:47 r, 00.00m,0000596700Hz,0000000000c,0000000.000s, 013.5C,00002191
2016-02-03 11:41:46 r, 00.00m,0000596569Hz,0000000000c,0000000.000s, 014.1C,00002191
2016-02-03 11:51:46 r, 00.00m,0000596580Hz,0000000000c,0000000.000s, 014.1C,00002191
2016-02-03 12:01:47 r, 00.00m,0000596527Hz,0000000000c,0000000.000s, 013.8C,00002191
2016-02-03 12:11:46 r, 00.00m,0000596768Hz,0000000000c,0000000.000s, 012.5C,00002191
2016-02-03 12:21:46 r, 00.00m,0000596635Hz,0000000000c,0000000.000s, 012.8C,00002191
2016-02-03 12:31:46 r, 00.00m,0000596585Hz,0000000000c,0000000.000s, 013.8C,00002191
2016-02-03 12:41:46 r, 00.00m,0000596477Hz,0000000000c,0000000.000s, 015.1C,00002191
2016-02-03 12:51:46 r, 00.00m,0000596483Hz,0000000000c,0000000.000s, 014.8C,00002191
2016-02-03 13:01:46 r, 00.00m,0000596796Hz,0000000000c,0000000.000s, 012.5C,00002191
2016-02-03 13:11:46 r, 00.00m,0000596808Hz,0000000000c,0000000.000s, 011.9C,00002191
2016-02-03 13:21:46 r, 00.00m,0000596920Hz,0000000000c,0000000.000s, 011.9C,00002191
2016-02-03 13:31:46 r, 00.00m,0000596895Hz,0000000000c,0000000.000s, 011.9C,00002191
2016-02-03 13:41:46 r, 00.00m,0000596827Hz,0000000000c,0000000.000s, 011.9C,00002191
2016-02-03 13:51:46 r, 00.00m,0000596737Hz,0000000000c,0000000.000s, 012.5C,00002191
2016-02-03 14:01:48 r, 00.00m,0000596735Hz,0000000000c,0000000.000s, 012.5C,00002191
2016-02-03 14:11:46 r, 00.00m,0000596713Hz,0000000000c,0000000.000s, 012.2C,00002191
2016-02-03 14:21:46 r, 00.00m,0000596782Hz,0000000000c,0000000.000s, 011.9C,00002191
2016-02-03 14:31:47 r, 00.00m,0000596824Hz,0000000000c,0000000.000s, 011.2C,00002191
2016-02-03 14:41:46 r, 00.00m,0000596811Hz,0000000000c,0000000.000s, 011.2C,00002191
2016-02-03 14:51:46 r, 00.00m,0000596921Hz,0000000000c,0000000.000s, 010.6C,00002191
2016-02-03 15:01:48 r, 00.00m,0000596841Hz,0000000000c,0000000.000s, 010.6C,00002191
2016-02-03 15:11:46 r, 00.00m,0000596935Hz,0000000000c,0000000.000s, 010.3C,00002191
2016-02-03 15:21:46 r, 00.00m,0000596971Hz,0000000000c,0000000.000s, 009.9C,00002191
2016-02-03 15:31:47 r, 00.00m,0000597026Hz,0000000000c,0000000.000s, 009.6C,00002191
2016-02-03 15:41:46 r, 00.00m,0000597110Hz,0000000000c,0000000.000s, 009.3C,00002191
2016-02-03 15:51:46 r, 00.00m,0000597161Hz,0000000000c,0000000.000s, 008.7C,00002191
2016-02-03 16:01:46 r, 00.00m,0000597093Hz,0000000000c,0000000.000s, 008.7C,00002191
2016-02-03 16:11:46 r, 00.00m,0000597072Hz,0000000000c,0000000.000s, 009.0C,00002191
2016-02-03 16:21:46 r, 00.00m,0000597076Hz,0000000000c,0000000.000s, 008.7C,00002191
2016-02-03 16:31:46 r, 00.00m,0000597195Hz,0000000000c,0000000.000s, 008.3C,00002191
2016-02-03 16:41:46 r, 00.00m,0000597259Hz,0000000000c,0000000.000s, 008.0C,00002191
2016-02-03 16:51:46 r, 00.00m,0000597218Hz,0000000000c,0000000.000s, 007.7C,00002191
2016-02-03 17:01:46 r, 05.90m,0000368965Hz,0000000000c,0000000.000s, 007.4C,00002191
2016-02-03 17:11:46 r, 06.54m,0000204796Hz,0000000000c,0000000.000s, 007.4C,00002191
2016-02-03 17:21:46 r, 07.32m,0000099986Hz,0000000000c,0000000.000s, 007.0C,00002191
2016-02-03 17:31:46 r, 08.21m,0000044285Hz,0000000000c,0000000.000s, 006.7C,00002191
2016-02-03 17:41:46 r, 09.63m,0000011931Hz,0000000000c,0000000.000s, 006.7C,00002191
2016-02-03 17:51:46 r, 11.49m,0000002152Hz,0000000000c,0000000.000s, 006.7C,00002191
2016-02-03 18:01:47 r, 13.54m,0000000327Hz,0000000000c,0000000.000s, 006.7C,00002191
2016-02-03 18:11:46 r, 15.59m,0000000049Hz,0000009479c,0000000.021s, 006.7C,00002191
2016-02-03 18:21:46 r, 17.34m,0000000010Hz,0000047144c,0000000.102s, 007.0C,00002191
2016-02-03 18:31:46 r, 18.26m,0000000004Hz,0000110427c,0000000.240s, 007.0C,00002191
2016-02-03 18:41:46 r, 18.74m,0000000003Hz,0000172723c,0000000.375s, 007.0C,00002191
2016-02-03 18:51:46 r, 18.99m,0000000002Hz,0000216894c,0000000.471s, 007.0C,00002191
2016-02-03 19:01:46 r, 19.18m,0000000002Hz,0000256143c,0000000.556s, 007.0C,00002191
2016-02-03 19:11:46 r, 19.40m,0000000001Hz,0000315918c,0000000.686s, 007.0C,00002191
2016-02-03 19:21:46 r, 19.41m,0000000002Hz,0000317779c,0000000.690s, 007.0C,00002191
2016-02-03 19:31:46 r, 19.36m,0000000002Hz,0000306054c,0000000.664s, 007.0C,00002191
2016-02-03 19:41:46 r, 19.23m,0000000001Hz,0000268770c,0000000.583s, 007.0C,00002191
2016-02-03 19:51:46 r, 19.21m,0000000001Hz,0000264966c,0000000.575s, 007.0C,00002191
2016-02-03 20:01:46 r, 19.21m,0000000002Hz,0000265035c,0000000.575s, 007.0C,00002191
2016-02-03 20:11:46 r, 19.11m,0000000002Hz,0000242126c,0000000.525s, 007.0C,00002191
2016-02-03 20:21:46 r, 19.27m,0000000001Hz,0000281358c,0000000.611s, 007.0C,00002191
2016-02-03 20:31:46 r, 19.39m,0000000002Hz,0000314659c,0000000.683s, 007.0C,00002191
2016-02-03 20:41:46 r, 19.41m,0000000002Hz,0000319432c,0000000.693s, 006.7C,00002191
2016-02-03 20:51:46 r, 19.45m,0000000001Hz,0000331135c,0000000.719s, 006.4C,00002191
2016-02-03 21:01:46 r, 19.53m,0000000002Hz,0000357088c,0000000.775s, 006.1C,00002191
2016-02-03 21:11:46 r, 19.48m,0000000001Hz,0000339848c,0000000.738s, 006.1C,00002191
2016-02-03 21:21:46 r, 19.29m,0000000001Hz,0000285077c,0000000.619s, 005.8C,00002191
2016-02-03 21:31:46 r, 19.47m,0000000002Hz,0000337775c,0000000.733s, 005.8C,00002191
2016-02-03 21:41:46 r, 19.61m,0000000001Hz,0000382883c,0000000.831s, 005.8C,00002191
2016-02-03 21:51:46 r, 19.89m,0000000001Hz,0000491450c,0000001.067s, 005.8C,00002191
2016-02-03 22:01:47 r, 20.13m,0000000000Hz,0000614651c,0000001.334s, 005.4C,00002191
2016-02-03 22:11:46 r, 20.24m,0000000000Hz,0000683398c,0000001.483s, 005.1C,00002191
2016-02-03 22:21:46 r, 20.20m,0000000001Hz,0000651849c,0000001.415s, 004.8C,00002191
2016-02-03 22:31:48 r, 20.15m,0000000001Hz,0000623801c,0000001.354s, 004.1C,00002191
2016-02-03 22:41:46 r, 20.19m,0000000001Hz,0000648016c,0000001.406s, 003.5C,00002191
2016-02-03 22:51:46 r, 19.92m,0000000001Hz,0000504011c,0000001.094s, 003.2C,00002191
2016-02-03 23:01:46 r, 19.55m,0000000002Hz,0000359229c,0000000.780s, 002.9C,00002191
2016-02-03 23:11:46 r, 19.31m,0000000002Hz,0000291680c,0000000.633s, 002.9C,00002191
2016-02-03 23:21:46 r, 19.20m,0000000002Hz,0000263029c,0000000.571s, 003.5C,00002191
2016-02-03 23:31:46 r, 19.20m,0000000002Hz,0000263745c,0000000.572s, 004.1C,00002191
2016-02-03 23:41:46 r, 19.15m,0000000002Hz,0000251428c,0000000.546s, 004.5C,00002191
2016-02-03 23:51:46 r, 19.11m,0000000002Hz,0000241852c,0000000.525s, 004.8C,00002191
